User: anonymous   Login
Location: Unspecified
(0.0000°N, 0.0000°E)
Time: 14:34:35
(UTC+02:00)
Language:

Cosmos 1933 - Orbit

View from above orbital plane
View from above orbital plane
View from above satellite
View from above satellite

Ground track
Ground track

The orbit data is extracted from the following two-line orbital elements,

1 18958U 88020A   17087.72676752 +.00000864 +00000-0 +61808-4 0  9999
2 18958 082.5321 181.4822 0011372 188.3323 171.7716 15.03178810558273
Epoch (UTC): 28 March 2017 17:26:32
Eccentricity: 0.0011372
inclination: 82.5321°
perigee height: 549 km
apogee height: 565 km
right ascension of ascending node: 181.4822°
argument of perigee: 188.3323°
revolutions per day: 15.03178810
mean anomaly at epoch: 171.7716°
orbit number at epoch: 55827

The dashed part of the orbit path shows where the satellite is in the earth's shadow,  

DLR